Regional Weather Roundup
Issued by NWS

Home | Current Version | Previous Version | Text Only | Print | Product List | Glossary On
Versions: 1 2 3 4 5 6 7 8 9 10 11 12 13 14 15 16 17 18 19 20 21 22 23 24 25 26 27 28 29 30 31 32 33 34 35 36 37 38 39 40 41 42 43 44 45 46 47 48 49 50
000
ASUS46 KSEW 232110
RWRWA

WASHINGTON REGIONAL WEATHER ROUNDUP
NATIONAL WEATHER SERVICE SEATTLE WA
100 PM PST THU FEB 23 2017

NOTE:"FAIR" INDICATES FEW OR NO CLOUDS BELOW 12,000 FEET WITH NO
SIGNIFICANT WEATHER AND/OR OBSTRUCTIONS TO VISIBILITY.

WAZ507-509-555>559-232200-
SEATTLE, TACOMA, EVERETT, AND VICINITY

CITY           SKY/WX    TMP DP  RH WIND       PRES   REMARKS
EVERETT        CLOUDY    39  31  72 CALM      30.24F
BOEING FIELD   PTSUNNY   41  37  86 SW3       30.26F
RENTON         CLOUDY    41  34  76 CALM      30.26F
SEATAC AIRPORT PTSUNNY   40  32  73 CALM      30.25F
JBLM-MCCHORD   PTSUNNY   41  36  82 SW8       30.25F
PUYALLUP         N/A     39  34  81 CALM      30.25F
BREMERTON      FAIR      39  32  75 CALM      30.27F
JBLM-FT LEWIS  MOSUNNY   37  37 100 SE9       30.25F
TACOMA NARROWS PTSUNNY   41  33  73 CALM      30.26F
$$

WAZ001-503-506-510-514-515-232200-
NORTH INTERIOR

CITY           SKY/WX    TMP DP  RH WIND       PRES   REMARKS
BELLINGHAM     CLOUDY    41  35  79 SW5       30.25F
FRIDAY HARBOR  PTSUNNY   42  34  73 CALM      30.27F
EASTSOUND      PTSUNNY   39  34  81 N7        30.25F
PORT ANGELES   FAIR      41  31  67 NE5       30.25F
EDIZ HOOK      FAIR      42  32  69 CALM      30.26F
PORT TOWNSEND  FAIR      41  34  75 VRB6      30.27S
NAS WHIDBEY    CLOUDY    42  33  70 NE5       30.30F
ARLINGTON      CLOUDY    39  30  70 S5        30.27F
BURLINGTON     CLOUDY    41  36  81 NW7       30.26F
$$

WAZ020-022-039-040-504-511-512-232200-
SOUTHWEST INTERIOR

CITY           SKY/WX    TMP DP  RH WIND       PRES   REMARKS
SHELTON        PTSUNNY   40  33  76 VRB3      30.23F
OLYMPIA        PTSUNNY   40  34  79 CALM      30.26F
CHEHALIS       FAIR      45  36  70 N5G13     30.26F
KELSO          FAIR      42  35  76 SE7       30.27F
VANCOUVER      FAIR      43  36  76 W6        30.26F
SCAPPOOSE, OR  CLOUDY    36  35  96 CALM      30.27F
PORTLAND, OR   PTSUNNY   41  33  73 NW5       30.27F
$$

WAZ021-516-517-232200-
WASHINGTON COAST

CITY           SKY/WX    TMP DP  RH WIND       PRES   REMARKS
FORKS          PTSUNNY   43  31  62 SW9       30.24F
HOQUIAM        FAIR      44  35  70 VRB6      30.25F
ASTORIA, OR    FAIR      39  34  82 NW3       30.26F
$$

WAZ019-023-024-040-567>569-232200-
CASCADE MOUNTAINS AND COLUMBIA GORGE

CITY           SKY/WX    TMP DP  RH WIND       PRES   REMARKS
STAMPEDE PASS  NOT AVBL
TROUTDALE, OR  PTSUNNY   45  33  63 N3        30.26F
THE DALLES, OR FAIR      48  26  42 NW18      30.19F
$$

WAZ026-027-041>044-520-521-232200-
EAST SLOPES

CITY           SKY/WX    TMP DP  RH WIND       PRES   REMARKS
OMAK           FAIR      38  20  48 NW10      30.13F
WENATCHEE      FAIR      37  20  50 CALM      30.13F
ELLENSBURG     FAIR      35  22  58 SE5       30.12F
YAKIMA         FAIR      45  20  36 VRB3      30.15F
SUNNYSIDE ARPT FAIR      39  25  58 SE3       30.16F
$$

WAZ028-034-035-232200-
COLUMBIA BASIN

CITY           SKY/WX    TMP DP  RH WIND       PRES   REMARKS
EPHRATA        FAIR      38  18  44 N10       30.13F
MOSES LAKE     FAIR      39  22  50 NW10      30.14F
PASCO          FAIR      45  22  40 N7        30.18F
HERMISTON, OR  FAIR      44  25  47 CALM      30.17F
$$

WAZ036>038-232200-
NORTHEAST WASHINGTON

CITY           SKY/WX    TMP DP  RH WIND       PRES   REMARKS
SPOKANE GEIGER PTSUNNY   29  25  85 VRB3      30.06F
SPOKANE FELTS  CLOUDY    29  26  89 CALM      30.09F
FAIRCHILD AFB  MOSUNNY   28  28 100 VRB3      30.05F
COEURDALENE,ID PTSUNNY   35  28  75 SW6       30.05F
DEER PARK      FAIR      32  21  64 S6        30.06F
$$

WAZ029>033-232200-
SOUTHEAST WASHINGTON

CITY           SKY/WX    TMP DP  RH WIND       PRES   REMARKS
PULLMAN        CLOUDY    30  26  85 NW7       30.07S
LEWISTON, ID   FAIR      41  27  57 NW14G21   30.08F
WALLA WALLA    FAIR      39  25  57 MISG      30.15F
PENDLETON, OR  FAIR      39  25  57 CALM      30.13F
$$



USA.gov is the U.S. government's official web portal to all federal, state and local government web resources and services.